THY9QA LTFM-LROP

Flight info

Callsign THY9QA
Flight time 0h 49m
Altitude 34000
Route IBLAX1E/36 IBLAX P727 BGS L622 GONGO DCT KOMAN DCT OBUGA
Aircraft B738/M-SDE2E3FGHIRWXY/LB1

Departure

Time 2026-05-05 17:36
Airport İstanbul Airport (LTFM)

Arrival

Time 2026-05-05 18:25
Airport Bucharest Henri Coandă International Airport (LROP)
Time Latitude Longitude Altitude Speed Heading
2026-05-05 17:02 41.25398 28.74898 329 ft 0 kts 269°
2026-05-05 17:26 41.25398 28.74903 333 ft 3 kts 269°
2026-05-05 17:26 41.25399 28.74933 331 ft 2 kts 269°
2026-05-05 17:26 41.25395 28.74961 330 ft 4 kts 325°
2026-05-05 17:27 41.25373 28.74968 329 ft 4 kts 359°
2026-05-05 17:27 41.25363 28.74968 329 ft 0 kts 359°
2026-05-05 17:30 41.25439 28.74966 329 ft 15 kts 359°
2026-05-05 17:30 41.25540 28.74963 330 ft 14 kts 358°
2026-05-05 17:31 41.25635 28.74971 332 ft 13 kts 39°
2026-05-05 17:31 41.25647 28.75035 331 ft 5 kts 88°
2026-05-05 17:31 41.25649 28.75083 329 ft 5 kts 87°
2026-05-05 17:31 41.25651 28.75130 332 ft 5 kts 87°
2026-05-05 17:32 41.25654 28.75223 333 ft 13 kts 88°
2026-05-05 17:32 41.25705 28.75292 331 ft 12 kts 355°
2026-05-05 17:32 41.25789 28.75287 331 ft 12 kts 359°
2026-05-05 17:32 41.25898 28.75284 333 ft 18 kts 359°
2026-05-05 17:33 41.26024 28.75280 330 ft 18 kts 358°
2026-05-05 17:33 41.26144 28.75277 329 ft 17 kts
2026-05-05 17:33 41.26248 28.75327 330 ft 17 kts 65°
2026-05-05 17:33 41.26251 28.75475 333 ft 16 kts 85°
2026-05-05 17:34 41.26251 28.75544 333 ft 7 kts 89°
2026-05-05 17:34 41.26286 28.75662 331 ft 14 kts 13°
2026-05-05 17:34 41.26321 28.75663 332 ft 0 kts 359°
2026-05-05 17:36 41.26485 28.75657 332 ft 68 kts 358°
2026-05-05 17:36 41.27267 28.75636 362 ft 151 kts 357°
2026-05-05 17:36 41.28332 28.75618 1371 ft 151 kts 359°
2026-05-05 17:36 41.29412 28.75652 2443 ft 165 kts 10°
2026-05-05 17:37 41.30542 28.76401 2936 ft 198 kts 31°
2026-05-05 17:37 41.31344 28.77073 3099 ft 215 kts 29°
2026-05-05 17:37 41.33117 28.78484 3830 ft 227 kts 28°
2026-05-05 17:37 41.34497 28.79563 4435 ft 235 kts 28°
2026-05-05 17:38 41.35936 28.80680 5133 ft 243 kts 28°
2026-05-05 17:38 41.37396 28.81808 6130 ft 241 kts 26°
2026-05-05 17:38 41.38990 28.82424 7011 ft 244 kts
2026-05-05 17:38 41.40724 28.82361 7714 ft 254 kts 355°
2026-05-05 17:39 41.42489 28.82132 8658 ft 255 kts 354°
2026-05-05 17:39 41.44267 28.81883 9546 ft 259 kts 354°
2026-05-05 17:39 41.46075 28.81636 10353 ft 265 kts 355°
2026-05-05 17:39 41.47987 28.81383 10648 ft 289 kts 355°
2026-05-05 17:40 41.50021 28.80721 10861 ft 315 kts 335°
2026-05-05 17:40 41.51858 28.79008 11472 ft 328 kts 324°
2026-05-05 17:40 41.53637 28.77060 12210 ft 333 kts 323°
2026-05-05 17:40 41.55434 28.75077 12984 ft 338 kts 323°
2026-05-05 17:41 41.57261 28.73071 13754 ft 343 kts 324°
2026-05-05 17:41 41.59122 28.71040 14464 ft 347 kts 324°
2026-05-05 17:41 41.61003 28.68998 15197 ft 349 kts 324°
2026-05-05 17:41 41.62900 28.66946 15911 ft 352 kts 324°
2026-05-05 17:42 41.64803 28.64891 16686 ft 353 kts 324°
2026-05-05 17:42 41.66729 28.62816 17360 ft 358 kts 324°
2026-05-05 17:42 41.68681 28.60712 18013 ft 362 kts 324°
2026-05-05 17:42 41.70653 28.58586 18656 ft 366 kts 323°
2026-05-05 17:43 41.72641 28.56440 19233 ft 369 kts 323°
2026-05-05 17:43 41.74651 28.54270 19792 ft 373 kts 323°
2026-05-05 17:43 41.76684 28.52073 20339 ft 377 kts 323°
2026-05-05 17:43 41.78735 28.49854 20887 ft 381 kts 323°
2026-05-05 17:44 41.80779 28.47640 21403 ft 385 kts 323°
2026-05-05 17:44 41.82891 28.45351 22017 ft 387 kts 323°
2026-05-05 17:44 41.84990 28.43075 22563 ft 390 kts 323°
2026-05-05 17:44 41.87083 28.40804 23060 ft 394 kts 323°
2026-05-05 17:45 41.89223 28.38478 23562 ft 398 kts 323°
2026-05-05 17:45 41.91382 28.36130 23995 ft 401 kts 323°
2026-05-05 17:45 41.93547 28.33773 24067 ft 400 kts 323°
2026-05-05 17:45 41.95716 28.31411 24095 ft 403 kts 323°
2026-05-05 17:46 41.97844 28.28952 24089 ft 405 kts 317°
2026-05-05 17:46 41.99680 28.26077 24080 ft 407 kts 307°
2026-05-05 17:46 42.01270 28.22935 24093 ft 407 kts 306°
2026-05-05 17:46 42.02329 28.20794 24082 ft 407 kts 306°
2026-05-05 17:47 42.03895 28.17623 24091 ft 407 kts 306°
2026-05-05 17:47 42.05464 28.14460 24116 ft 406 kts 306°
2026-05-05 17:47 42.07027 28.11326 24615 ft 402 kts 306°
2026-05-05 17:47 42.08588 28.08211 25110 ft 402 kts 306°
2026-05-05 17:48 42.10159 28.05083 25616 ft 403 kts 306°
2026-05-05 17:48 42.11728 28.01958 26118 ft 402 kts 306°
2026-05-05 17:48 42.13273 27.98878 26635 ft 402 kts 306°
2026-05-05 17:48 42.14834 27.95764 27182 ft 401 kts 306°
2026-05-05 17:49 42.16414 27.92608 27725 ft 400 kts 306°
2026-05-05 17:49 42.17945 27.89548 28276 ft 398 kts 306°
2026-05-05 17:49 42.19489 27.86457 28848 ft 396 kts 306°
2026-05-05 17:49 42.21057 27.83414 29410 ft 394 kts 310°
2026-05-05 17:50 42.22926 27.80752 29986 ft 390 kts 319°
2026-05-05 17:50 42.27473 27.76607 30090 ft 398 kts 332°
2026-05-05 17:51 42.32384 27.73090 30084 ft 401 kts 333°
2026-05-05 17:51 42.37323 27.69531 30078 ft 403 kts 332°
2026-05-05 17:52 42.42268 27.65917 30073 ft 404 kts 332°
2026-05-05 17:52 42.47190 27.62298 30059 ft 402 kts 332°
2026-05-05 17:53 42.52083 27.58694 30073 ft 399 kts 332°
2026-05-05 17:53 42.56948 27.55106 30080 ft 397 kts 332°
2026-05-05 17:54 42.61642 27.51129 30083 ft 399 kts 326°
2026-05-05 17:54 42.66121 27.46660 30080 ft 400 kts 324°
2026-05-05 17:55 42.70609 27.42163 30066 ft 401 kts 325°
2026-05-05 17:55 42.75135 27.37676 29652 ft 403 kts 326°
2026-05-05 17:55 42.77392 27.35446 29362 ft 401 kts 326°
2026-05-05 17:56 42.79657 27.33210 29066 ft 404 kts 326°
2026-05-05 17:56 42.81947 27.30949 28762 ft 408 kts 326°
2026-05-05 17:56 42.84247 27.28675 28468 ft 410 kts 326°
2026-05-05 17:56 42.86560 27.26386 28173 ft 411 kts 326°
2026-05-05 17:57 42.88877 27.24090 27865 ft 412 kts 326°
2026-05-05 17:57 42.91194 27.21792 27569 ft 412 kts 326°
2026-05-05 17:57 42.93506 27.19497 27278 ft 411 kts 326°
2026-05-05 17:57 42.95814 27.17203 26988 ft 410 kts 326°
2026-05-05 17:58 42.98005 27.15023 26720 ft 409 kts 326°
2026-05-05 17:58 43.00232 27.12806 26450 ft 408 kts 326°
2026-05-05 17:58 43.02526 27.10519 26165 ft 408 kts 326°
2026-05-05 17:58 43.04818 27.08235 25899 ft 407 kts 326°
2026-05-05 17:59 43.07104 27.05952 25620 ft 407 kts 326°
2026-05-05 17:59 43.09363 27.03695 25356 ft 407 kts 326°
2026-05-05 17:59 43.11666 27.01451 25087 ft 406 kts 328°
2026-05-05 17:59 43.14013 26.99300 24821 ft 405 kts 329°
2026-05-05 18:00 43.16370 26.97191 24564 ft 404 kts 329°
2026-05-05 18:00 43.18723 26.95093 24299 ft 403 kts 329°
2026-05-05 18:00 43.21064 26.92998 24039 ft 401 kts 329°
2026-05-05 18:00 43.23391 26.90903 23782 ft 399 kts 329°
2026-05-05 18:01 43.25703 26.88809 23508 ft 397 kts 329°
2026-05-05 18:01 43.27998 26.86723 23185 ft 395 kts 329°
2026-05-05 18:01 43.30300 26.84627 22888 ft 394 kts 329°
2026-05-05 18:01 43.32563 26.82562 22591 ft 392 kts 329°
2026-05-05 18:02 43.34830 26.80490 22293 ft 391 kts 329°
2026-05-05 18:02 43.37088 26.78424 22001 ft 390 kts 329°
2026-05-05 18:02 43.39346 26.76356 21713 ft 388 kts 329°
2026-05-05 18:02 43.41589 26.74301 21432 ft 387 kts 329°
2026-05-05 18:03 43.43826 26.72248 21145 ft 385 kts 329°
2026-05-05 18:03 43.46050 26.70207 20864 ft 384 kts 329°
2026-05-05 18:03 43.48269 26.68167 20584 ft 382 kts 329°
2026-05-05 18:03 43.50477 26.66137 20297 ft 381 kts 329°
2026-05-05 18:04 43.52676 26.64113 20020 ft 379 kts 329°
2026-05-05 18:04 43.54865 26.62095 19747 ft 378 kts 329°
2026-05-05 18:04 43.57040 26.60089 19488 ft 376 kts 329°
2026-05-05 18:04 43.59216 26.58081 19217 ft 375 kts 329°
2026-05-05 18:05 43.61380 26.56082 18958 ft 374 kts 329°
2026-05-05 18:05 43.63540 26.54086 18693 ft 373 kts 329°
2026-05-05 18:05 43.65690 26.52096 18434 ft 372 kts 329°
2026-05-05 18:05 43.67830 26.50114 18196 ft 369 kts 329°
2026-05-05 18:06 43.69958 26.48141 17940 ft 367 kts 329°
2026-05-05 18:06 43.71361 26.46839 17748 ft 366 kts 329°
2026-05-05 18:06 43.74180 26.44221 17408 ft 364 kts 329°
2026-05-05 18:06 43.76279 26.42270 17159 ft 362 kts 329°
2026-05-05 18:07 43.78480 26.40661 16881 ft 357 kts 346°
2026-05-05 18:07 43.80898 26.40323 16636 ft 343 kts
2026-05-05 18:07 43.83181 26.40942 16378 ft 329 kts 16°
2026-05-05 18:07 43.85354 26.41805 16125 ft 321 kts 17°
2026-05-05 18:08 43.87478 26.42673 15867 ft 315 kts 17°
2026-05-05 18:08 43.89566 26.43527 15607 ft 312 kts 17°
2026-05-05 18:08 43.91644 26.44370 15372 ft 310 kts 17°
2026-05-05 18:08 43.93713 26.45203 15120 ft 309 kts 17°
2026-05-05 18:09 43.95768 26.46025 14877 ft 307 kts 16°
2026-05-05 18:09 43.97820 26.46843 14633 ft 306 kts 16°
2026-05-05 18:09 43.99866 26.47656 14397 ft 305 kts 16°
2026-05-05 18:09 44.01900 26.48463 14150 ft 304 kts 16°
2026-05-05 18:10 44.03938 26.49272 13915 ft 303 kts 17°
2026-05-05 18:10 44.05965 26.50076 13663 ft 303 kts 17°
2026-05-05 18:10 44.07980 26.50876 13380 ft 299 kts 17°
2026-05-05 18:10 44.09971 26.51666 13071 ft 296 kts 17°
2026-05-05 18:11 44.11916 26.52439 12731 ft 293 kts 17°
2026-05-05 18:11 44.13864 26.53214 12390 ft 291 kts 17°
2026-05-05 18:11 44.15801 26.53984 12066 ft 288 kts 17°
2026-05-05 18:11 44.17723 26.54749 11720 ft 286 kts 17°
2026-05-05 18:12 44.19656 26.55519 11372 ft 284 kts 17°
2026-05-05 18:12 44.21526 26.56265 11051 ft 282 kts 17°
2026-05-05 18:12 44.23404 26.57014 10725 ft 280 kts 17°
2026-05-05 18:12 44.25275 26.57761 10438 ft 277 kts 17°
2026-05-05 18:13 44.27094 26.58486 10335 ft 267 kts 17°
2026-05-05 18:13 44.28853 26.59189 10228 ft 259 kts 17°
2026-05-05 18:13 44.30560 26.59871 10120 ft 251 kts 18°
2026-05-05 18:13 44.32214 26.60532 9959 ft 244 kts 18°
2026-05-05 18:14 44.33840 26.61184 9708 ft 242 kts 17°
2026-05-05 18:14 44.35453 26.61831 9424 ft 241 kts 17°
2026-05-05 18:14 44.37063 26.62477 9153 ft 240 kts 17°
2026-05-05 18:14 44.38662 26.63119 8887 ft 239 kts 17°
2026-05-05 18:15 44.40255 26.63758 8627 ft 238 kts 17°
2026-05-05 18:15 44.41838 26.64394 8428 ft 234 kts 17°
2026-05-05 18:15 44.43253 26.64962 8340 ft 227 kts 17°
2026-05-05 18:15 44.44746 26.65562 8232 ft 220 kts 17°
2026-05-05 18:16 44.46216 26.66152 8119 ft 221 kts 17°
2026-05-05 18:16 44.47714 26.66650 8062 ft 223 kts
2026-05-05 18:16 44.49263 26.66475 8068 ft 223 kts 356°
2026-05-05 18:16 44.50789 26.66241 8039 ft 218 kts 357°
2026-05-05 18:17 44.52280 26.66027 8034 ft 213 kts 358°
2026-05-05 18:17 44.53762 26.65820 7803 ft 217 kts 357°
2026-05-05 18:17 44.55274 26.65610 7543 ft 219 kts 357°
2026-05-05 18:17 44.56789 26.65398 7275 ft 219 kts 357°
2026-05-05 18:18 44.58303 26.65110 6992 ft 221 kts 349°
2026-05-05 18:18 44.59693 26.64147 6656 ft 233 kts 316°
2026-05-05 18:18 44.60384 26.62051 6340 ft 247 kts 283°
2026-05-05 18:18 44.60395 26.59538 5659 ft 269 kts 268°
2026-05-05 18:19 44.60182 26.56856 4990 ft 284 kts 266°
2026-05-05 18:19 44.59950 26.54044 4315 ft 296 kts 266°
2026-05-05 18:19 44.59733 26.51168 3625 ft 294 kts 265°
2026-05-05 18:19 44.59517 26.48344 3020 ft 287 kts 264°
2026-05-05 18:20 44.59309 26.45660 2819 ft 267 kts 263°
2026-05-05 18:20 44.59149 26.43154 2674 ft 250 kts 266°
2026-05-05 18:20 44.59031 26.40795 2576 ft 233 kts 263°
2026-05-05 18:20 44.58857 26.38613 2558 ft 227 kts 262°
2026-05-05 18:21 44.58670 26.36419 2570 ft 229 kts 261°
2026-05-05 18:21 44.58473 26.34208 2549 ft 228 kts 264°
2026-05-05 18:21 44.58324 26.31967 2538 ft 231 kts 264°
2026-05-05 18:21 44.58159 26.29785 2451 ft 221 kts 262°
2026-05-05 18:22 44.58005 26.27738 2410 ft 199 kts 263°
2026-05-05 18:22 44.57850 26.25863 2171 ft 189 kts 262°
2026-05-05 18:22 44.57699 26.24044 1799 ft 187 kts 263°
2026-05-05 18:22 44.57580 26.22334 1711 ft 164 kts 263°
2026-05-05 18:23 44.57452 26.20822 1634 ft 144 kts 262°
2026-05-05 18:23 44.57357 26.19509 1461 ft 132 kts 264°
2026-05-05 18:23 44.57264 26.18217 1242 ft 135 kts 262°
2026-05-05 18:23 44.57150 26.16893 989 ft 138 kts 262°
2026-05-05 18:24 44.57040 26.15566 834 ft 138 kts 264°
2026-05-05 18:24 44.56952 26.14235 680 ft 135 kts 264°
2026-05-05 18:24 44.56852 26.12931 489 ft 134 kts 264°
2026-05-05 18:24 44.56759 26.11659 350 ft 127 kts 265°
2026-05-05 18:25 44.56683 26.10559 322 ft 103 kts 265°
2026-05-05 18:25 44.56642 26.10013 323 ft 66 kts 263°
2026-05-05 18:25 44.56591 26.09380 321 ft 44 kts 264°
2026-05-05 18:25 44.56565 26.08994 322 ft 22 kts 265°
2026-05-05 18:26 44.56557 26.08782 321 ft 22 kts 274°
2026-05-05 18:26 44.56627 26.08606 321 ft 21 kts 328°
2026-05-05 18:26 44.56694 26.08581 321 ft 4 kts 353°
2026-05-05 18:26 44.56722 26.08576 321 ft 4 kts 354°
2026-05-05 18:27 44.56749 26.08572 320 ft 4 kts 354°
2026-05-05 18:27 44.56776 26.08568 321 ft 4 kts 354°
2026-05-05 18:27 44.56802 26.08564 321 ft 4 kts 354°
2026-05-05 18:27 44.56870 26.08554 321 ft 18 kts 354°
2026-05-05 18:28 44.57114 26.08518 322 ft 17 kts 354°
2026-05-05 18:28 44.57222 26.08477 322 ft 16 kts 308°
2026-05-05 18:28 44.57221 26.08329 320 ft 11 kts 263°
2026-05-05 18:29 44.57214 26.08228 322 ft 10 kts 264°
2026-05-05 18:29 44.57203 26.08159 321 ft 5 kts 227°
2026-05-05 18:29 44.57172 26.08163 320 ft 5 kts 162°
2026-05-05 18:29 44.57149 26.08166 322 ft 0 kts 178°